Location: Mason
(37.5237°N, 89.2543°W)
Time: 16:33:44
(UTC+00:00)

Aureole 3 Rocket - Pass Details

Date: 10 July 2022
Orbit: 398 x 1735 km, 82.5° (Epoch: 17 August)

Event Time Altitude Azimuth Distance (km) Brightness Sun altitude
Rises 09:47:08 0° 15° (NNE) 2,318 7.0 -10.3°
Reaches altitude 10° 09:49:46 10° 43° (NE) 1,496 6.6 -9.9°
Maximum altitude 09:51:35 14° 78° (ENE) 1,312 5.8 -9.6°
Drops below altitude 10° 09:53:31 10° 113° (ESE) 1,628 5.6 -9.3°
Sets 09:56:36 0° 139° (SE) 2,685 6.4 -8.8°
